Volver al catálogo

SL-8 DEB

ActivoLEO
NORAD 21211·DEBRIS·🇷🇺 Russia

Lanzado Feb 12, 1991 desde Plesetsk Cosmodrome

Loading…

Próximos Pases (próximas 24 horas)

TLE

ActualizadoSource: Space-Track

Época: Sep 14, 2026, 18:06 UTC

1 21211U 91009BE  26257.75471234  .00000221  00000-0  21318-2 0  9993
2 21211  74.0973 155.9115 0199825 102.8966 289.4640 12.19854054578150

Sigue SL-8 DEB en tiempo real con AllMySat

Download on the App Store